Location: Brompton
(51.4000°N, 0.5333°E)
Time: 07:22:41
(UTC+00:00)

Cosmos 773 Rocket - Pass Details

Date: 11 May 2021
Orbit: 745 x 777 km, 74.1° (Epoch: 13 June)

Event Time Altitude Azimuth Distance (km) Brightness Sun altitude
Rises 20:09:01 0° 336° (NNW) 3,271 8.5 -4.9°
Reaches altitude 10° 20:11:26 10° 339° (NNW) 2,340 7.6 -5.2°
Maximum altitude 20:16:45 67° 62° (ENE) 845 4.2 -5.9°
Drops below altitude 10° 20:21:59 10° 145° (SE) 2,318 5.9 -6.5°
Enters shadow 20:22:42 - 147° (SSE) 2,587 6.1 -6.6°
